Location: Marineo
(37.9500°N, 13.4170°E)
Time: 11:45:17
(UTC+02:00)

ISS - Visible Passes

Search period start: 17 June 2021 00:00
Search period end: 27 June 2021 00:00
Orbit: 417 x 422 km, 51.6° (Epoch: 16 June)

Date Brightness Start Highest point End Pass type
(mag) Time Alt. Az. Time Alt. Az. Time Alt. Az.
24 Jun -1.7 04:58:02 10° S 05:00:34 20° SE 05:03:08 10° E visible
25 Jun -1.1 04:12:09 10° SSE 04:13:19 11° SE 04:14:29 10° ESE visible
26 Jun -3.6 04:59:06 11° SW 05:02:17 68° SE 05:05:37 10° NE visible
